STARLINK-5652 (55334 NORAD) Tracking and Keplerian Element Data

This shows tracking and keplerian element data for the satellite.

Feedback or suggestion? Click here.




ElementValue
Catalog55334
NameSTARLINK-5652
Epoch Orbit1606
Epoch Day126.83811311
Epoch Year2023
RAAN175.9265
Inclination43
Eccentricity0.0001135
Argument of Perigee271.7139
Mean Anonmoly88.3573
Mean Motion15.01724347
Decay Rate-1.1E-06
L11 55334U 23013D 23126.83811311 -.00000110 00000+0 69565-5 0 9997
L22 55334 43.0000 175.9265 0001135 271.7139 88.3573 15.01724347 16065



Live tracking and technical data element details for STARLINK-5652 (NORAD 55334). STARLINK-5652 can be tracked NOW for your location showing map with azimuth and elevation plus other details from your city location.







IsCatalogInMostPopularTable: catalog: 55334, numindb: 1
Update: records affected: 1



GetName: 55334 STARLINK-5652

Hit Count: updated at: Mon, 05 Jun 2023 19:15:12 GMT